Time,TemperatureF,DewpointF,PressureIn,WindDirection,WindDirectionDegrees,WindSpeedMPH,WindSpeedGustMPH,Humidity,HourlyPrecipIn,Conditions,Clouds,dailyrainin,SoftwareType,DateUTC
2013-03-29 00:00:00,43.0,31.6,30.09,NNW,327,4.0,4.0,64,0.00,,,0.00,Wunderground v.1.15,2013-03-29 04:00:00,
2013-03-29 00:10:00,42.9,31.6,30.09,NW,325,3.0,3.0,64,0.00,,,0.00,Wunderground v.1.15,2013-03-29 04:10:00,
2013-03-29 00:11:00,42.9,31.0,30.09,WNW,295,0.0,9.0,64,0.00,,,0.00,weatherlink.com 1.10,2013-03-29 04:11:00,
2013-03-29 00:20:00,42.7,31.4,30.09,WNW,294,2.0,2.0,64,0.00,,,0.00,Wunderground v.1.15,2013-03-29 04:20:00,
2013-03-29 00:27:00,42.5,31.0,30.09,West,275,1.0,4.0,65,0.00,,,0.00,weatherlink.com 1.10,2013-03-29 04:27:00,
2013-03-29 00:40:00,42.4,31.5,30.09,NNW,336,2.0,3.0,65,0.00,,,0.00,Wunderground v.1.15,2013-03-29 04:40:00,
2013-03-29 00:50:00,42.4,31.1,30.09,North,355,3.0,3.0,64,0.00,,,0.00,Wunderground v.1.15,2013-03-29 04:50:00,
2013-03-29 00:56:00,42.3,31.0,30.09,NNW,342,0.0,6.0,64,0.00,,,0.00,weatherlink.com 1.10,2013-03-29 04:56:00,
2013-03-29 01:10:00,42.2,31.3,30.09,WNW,302,2.0,2.0,65,0.00,,,0.00,Wunderground v.1.15,2013-03-29 05:10:00,
2013-03-29 01:20:00,42.1,31.2,30.09,North,5,1.0,2.0,65,0.00,,,0.00,Wunderground v.1.15,2013-03-29 05:20:00,
2013-03-29 01:28:00,42.0,31.0,30.10,WNW,302,0.0,5.0,65,0.00,,,0.00,weatherlink.com 1.10,2013-03-29 05:28:00,
2013-03-29 01:40:00,42.2,31.3,30.10,North,355,2.0,2.0,65,0.00,,,0.00,Wunderground v.1.15,2013-03-29 05:40:00,
2013-03-29 01:50:00,42.3,31.4,30.10,NNW,345,2.0,3.0,65,0.00,,,0.00,Wunderground v.1.15,2013-03-29 05:50:00,
2013-03-29 01:59:00,42.5,31.0,30.10,North,360,6.0,7.0,65,0.00,,,0.00,weatherlink.com 1.10,2013-03-29 05:59:00,
2013-03-29 02:10:00,42.5,31.2,30.10,NW,313,1.0,3.0,64,0.00,,,0.00,Wunderground v.1.15,2013-03-29 06:10:00,
2013-03-29 02:20:00,42.6,31.3,30.10,NW,323,4.0,5.0,64,0.00,,,0.00,Wunderground v.1.15,2013-03-29 06:20:00,
2013-03-29 02:28:00,42.6,31.0,30.09,North,360,5.0,8.0,64,0.00,,,0.00,weatherlink.com 1.10,2013-03-29 06:28:00,
2013-03-29 02:40:00,42.5,30.8,30.10,NW,319,3.0,3.0,63,0.00,,,0.00,Wunderground v.1.15,2013-03-29 06:40:00,
2013-03-29 02:50:00,42.4,31.1,30.10,North,355,4.0,5.0,64,0.00,,,0.00,Wunderground v.1.15,2013-03-29 06:50:00,
2013-03-29 02:58:00,42.3,30.0,30.09,NNW,338,2.0,8.0,63,0.00,,,0.00,weatherlink.com 1.10,2013-03-29 06:58:00,
2013-03-29 03:10:00,42.0,30.7,30.09,NNW,332,3.0,3.0,64,0.00,,,0.00,Wunderground v.1.15,2013-03-29 07:10:00,
2013-03-29 03:20:00,41.7,30.8,30.09,NNW,344,2.0,2.0,65,0.00,,,0.00,Wunderground v.1.15,2013-03-29 07:20:00,
2013-03-29 03:28:00,41.4,31.0,30.09,NNW,340,4.0,6.0,66,0.00,,,0.00,weatherlink.com 1.10,2013-03-29 07:28:00,
2013-03-29 03:40:00,41.1,31.0,30.09,NNE,18,3.0,3.0,67,0.00,,,0.00,Wunderground v.1.15,2013-03-29 07:40:00,
2013-03-29 03:50:00,40.9,31.1,30.09,NNE,27,2.0,2.0,68,0.00,,,0.00,Wunderground v.1.15,2013-03-29 07:50:00,
2013-03-29 03:58:00,40.7,31.0,30.10,NNW,332,1.0,5.0,68,0.00,,,0.00,weatherlink.com 1.10,2013-03-29 07:58:00,
2013-03-29 04:10:00,40.4,31.0,30.10,NNW,340,1.0,5.0,69,0.00,,,0.00,Wunderground v.1.15,2013-03-29 08:10:00,
2013-03-29 04:20:00,40.4,31.0,30.10,NW,325,2.0,2.0,69,0.00,,,0.00,Wunderground v.1.15,2013-03-29 08:20:00,
2013-03-29 04:28:00,40.2,31.0,30.10,NW,311,2.0,6.0,69,0.00,,,0.00,weatherlink.com 1.10,2013-03-29 08:28:00,
2013-03-29 04:40:00,39.9,30.9,30.09,NNW,329,2.0,2.0,70,0.00,,,0.00,Wunderground v.1.15,2013-03-29 08:40:00,
2013-03-29 04:50:00,39.7,30.7,30.09,North,360,2.0,5.0,70,0.00,,,0.00,Wunderground v.1.15,2013-03-29 08:50:00,
2013-03-29 04:59:00,39.5,31.0,30.10,NW,309,2.0,7.0,71,0.00,,,0.00,weatherlink.com 1.10,2013-03-29 08:59:00,
2013-03-29 05:10:00,39.4,30.8,30.09,NW,324,1.0,1.0,71,0.00,,,0.00,Wunderground v.1.15,2013-03-29 09:10:00,
2013-03-29 05:20:00,39.3,30.7,30.09,NNW,334,2.0,3.0,71,0.00,,,0.00,Wunderground v.1.15,2013-03-29 09:20:00,
2013-03-29 05:29:00,39.4,31.0,30.10,North,360,4.0,7.0,71,0.00,,,0.00,weatherlink.com 1.10,2013-03-29 09:29:00,
2013-03-29 05:40:00,39.6,30.6,30.10,NNW,333,3.0,3.0,70,0.00,,,0.00,Wunderground v.1.15,2013-03-29 09:40:00,
2013-03-29 05:50:00,39.4,30.8,30.09,NNW,339,2.0,2.0,71,0.00,,,0.00,Wunderground v.1.15,2013-03-29 09:50:00,
2013-03-29 06:00:00,39.3,31.0,30.09,NNW,329,6.0,8.0,71,0.00,,,0.00,weatherlink.com 1.10,2013-03-29 10:00:00,
2013-03-29 06:10:00,39.2,30.6,30.09,North,360,3.0,5.0,71,0.00,,,0.00,Wunderground v.1.15,2013-03-29 10:10:00,
2013-03-29 06:20:00,39.2,30.6,30.09,North,9,3.0,3.0,71,0.00,,,0.00,Wunderground v.1.15,2013-03-29 10:20:00,
2013-03-29 06:29:00,39.2,31.0,30.09,North,355,2.0,7.0,71,0.00,,,0.00,weatherlink.com 1.10,2013-03-29 10:29:00,
2013-03-29 06:40:00,39.1,30.5,30.09,North,355,3.0,3.0,71,0.00,,,0.00,Wunderground v.1.15,2013-03-29 10:40:00,
2013-03-29 06:50:00,39.1,30.5,30.09,NNE,23,3.0,3.0,71,0.00,,,0.00,Wunderground v.1.15,2013-03-29 10:50:00,
2013-03-29 07:00:00,39.2,30.6,30.10,North,5,4.0,4.0,71,0.00,,,0.00,Wunderground v.1.15,2013-03-29 11:00:00,
2013-03-29 07:10:00,39.1,30.8,30.10,NW,326,1.0,1.0,72,0.00,,,0.00,Wunderground v.1.15,2013-03-29 11:10:00,
2013-03-29 07:15:00,39.2,31.0,30.11,NW,323,0.0,6.0,72,0.00,,,0.00,weatherlink.com 1.10,2013-03-29 11:15:00,
2013-03-29 07:29:00,39.4,31.0,30.11,NNW,341,4.0,7.0,72,0.00,,,0.00,weatherlink.com 1.10,2013-03-29 11:29:00,
2013-03-29 07:40:00,39.7,31.1,30.11,NNW,338,2.0,3.0,71,0.00,,,0.00,Wunderground v.1.15,2013-03-29 11:40:00,
2013-03-29 07:45:00,39.8,31.0,30.11,NNW,344,2.0,5.0,71,0.00,,,0.00,weatherlink.com 1.10,2013-03-29 11:45:00,
2013-03-29 08:00:00,40.3,31.0,30.11,NNW,327,3.0,7.0,70,0.00,,,0.00,weatherlink.com 1.10,2013-03-29 12:00:00,
2013-03-29 08:10:00,40.7,31.3,30.11,NNW,330,3.0,3.0,69,0.00,,,0.00,Wunderground v.1.15,2013-03-29 12:10:00,
2013-03-29 08:15:00,41.0,32.0,30.11,WNW,295,2.0,7.0,69,0.00,,,0.00,weatherlink.com 1.10,2013-03-29 12:15:00,
2013-03-29 08:30:00,41.7,31.0,30.11,West,267,8.0,9.0,66,0.00,,,0.00,weatherlink.com 1.10,2013-03-29 12:30:00,
2013-03-29 08:40:00,42.0,31.5,30.11,NNE,32,4.0,4.0,66,0.00,,,0.00,Wunderground v.1.15,2013-03-29 12:40:00,
2013-03-29 08:45:00,42.4,32.0,30.11,WNW,301,2.0,5.0,66,0.00,,,0.00,weatherlink.com 1.10,2013-03-29 12:45:00,
2013-03-29 09:00:00,43.1,31.4,30.11,NNW,340,4.0,6.0,63,0.00,,,0.00,Wunderground v.1.15,2013-03-29 13:00:00,
2013-03-29 09:10:00,43.5,32.1,30.11,NW,309,2.0,2.0,64,0.00,,,0.00,Wunderground v.1.15,2013-03-29 13:10:00,
2013-03-29 09:15:00,43.9,31.0,30.11,NNW,327,4.0,7.0,61,0.00,,,0.00,weatherlink.com 1.10,2013-03-29 13:15:00,
2013-03-29 09:30:00,44.6,31.6,30.11,NNW,330,3.0,3.0,60,0.00,,,0.00,Wunderground v.1.15,2013-03-29 13:30:00,
2013-03-29 09:40:00,45.5,32.0,30.11,NE,48,2.0,2.0,59,0.00,,,0.00,Wunderground v.1.15,2013-03-29 13:40:00,
2013-03-29 09:45:00,45.6,31.0,30.11,NNW,332,4.0,11.0,56,0.00,,,0.00,weatherlink.com 1.10,2013-03-29 13:45:00,
2013-03-29 10:00:00,46.0,31.2,30.11,North,5,5.0,5.0,56,0.00,,,0.00,Wunderground v.1.15,2013-03-29 14:00:00,
2013-03-29 10:10:00,46.6,31.3,30.11,WNW,299,4.0,4.0,55,0.00,,,0.00,Wunderground v.1.15,2013-03-29 14:10:00,
2013-03-29 10:17:00,47.0,31.0,30.11,NNW,348,5.0,9.0,54,0.00,,,0.00,weatherlink.com 1.10,2013-03-29 14:17:00,
2013-03-29 10:30:00,47.3,31.0,30.11,North,355,3.0,4.0,53,0.00,,,0.00,Wunderground v.1.15,2013-03-29 14:30:00,
2013-03-29 10:40:00,47.4,30.6,30.11,North,355,4.0,5.0,52,0.00,,,0.00,Wunderground v.1.15,2013-03-29 14:40:00,
2013-03-29 10:47:00,47.6,30.0,30.11,North,5,4.0,9.0,51,0.00,,,0.00,weatherlink.com 1.10,2013-03-29 14:47:00,
2013-03-29 11:00:00,48.1,30.8,30.11,NNW,328,5.0,5.0,51,0.00,,,0.00,Wunderground v.1.15,2013-03-29 15:00:00,
2013-03-29 11:10:00,48.9,30.6,30.10,WNW,284,3.0,3.0,49,0.00,,,0.00,Wunderground v.1.15,2013-03-29 15:10:00,
2013-03-29 11:17:00,49.1,30.0,30.10,WNW,290,0.0,8.0,48,0.00,,,0.00,weatherlink.com 1.10,2013-03-29 15:17:00,
2013-03-29 11:30:00,49.1,30.2,30.10,NNE,26,4.0,4.0,48,0.00,,,0.00,Wunderground v.1.15,2013-03-29 15:30:00,
2013-03-29 11:40:00,49.2,30.8,30.10,NW,318,1.0,1.0,49,0.00,,,0.00,Wunderground v.1.15,2013-03-29 15:40:00,
2013-03-29 11:47:00,50.0,31.0,30.10,NNW,327,5.0,8.0,49,0.00,,,0.00,weatherlink.com 1.10,2013-03-29 15:47:00,
2013-03-29 12:00:00,50.8,30.7,30.09,WSW,250,3.0,5.0,46,0.00,,,0.00,Wunderground v.1.15,2013-03-29 16:00:00,
2013-03-29 12:10:00,51.3,31.2,30.09,NNW,338,3.0,6.0,46,0.00,,,0.00,Wunderground v.1.15,2013-03-29 16:10:00,
2013-03-29 12:18:00,50.8,29.0,30.09,North,350,2.0,10.0,44,0.00,,,0.00,weatherlink.com 1.10,2013-03-29 16:18:00,
2013-03-29 12:30:00,51.3,30.1,30.08,WNW,291,3.0,3.0,44,0.00,,,0.00,Wunderground v.1.15,2013-03-29 16:30:00,
2013-03-29 12:40:00,50.9,29.2,30.08,WNW,290,3.0,3.0,43,0.00,,,0.00,Wunderground v.1.15,2013-03-29 16:40:00,
2013-03-29 12:47:00,51.3,30.0,30.07,North,350,5.0,7.0,44,0.00,,,0.00,weatherlink.com 1.10,2013-03-29 16:47:00,
2013-03-29 13:00:00,50.6,28.9,30.07,WNW,296,4.0,4.0,43,0.00,,,0.00,Wunderground v.1.15,2013-03-29 17:00:00,
2013-03-29 13:10:00,51.0,29.8,30.07,WNW,289,3.0,3.0,44,0.00,,,0.00,Wunderground v.1.15,2013-03-29 17:10:00,
2013-03-29 13:18:00,50.9,29.0,30.07,NNW,340,3.0,11.0,43,0.00,,,0.00,weatherlink.com 1.10,2013-03-29 17:18:00,
2013-03-29 13:30:00,50.7,29.0,30.06,NNE,22,3.0,3.0,43,0.00,,,0.00,Wunderground v.1.15,2013-03-29 17:30:00,
2013-03-29 13:40:00,51.4,29.6,30.06,WNW,292,3.0,5.0,43,0.00,,,0.00,Wunderground v.1.15,2013-03-29 17:40:00,
2013-03-29 13:48:00,50.8,29.0,30.05,NNW,331,2.0,10.0,43,0.00,,,0.00,weatherlink.com 1.10,2013-03-29 17:48:00,
2013-03-29 14:00:00,51.6,29.2,30.05,NW,326,1.0,4.0,42,0.00,,,0.00,Wunderground v.1.15,2013-03-29 18:00:00,
2013-03-29 14:10:00,51.0,28.7,30.05,NNW,341,4.0,4.0,42,0.00,,,0.00,Wunderground v.1.15,2013-03-29 18:10:00,
2013-03-29 14:18:00,51.2,29.0,30.05,WSW,243,4.0,8.0,42,0.00,,,0.00,weatherlink.com 1.10,2013-03-29 18:18:00,
2013-03-29 14:30:00,50.9,28.0,30.05,NNW,348,3.0,3.0,41,0.00,,,0.00,Wunderground v.1.15,2013-03-29 18:30:00,
2013-03-29 14:40:00,50.8,28.5,30.05,NW,326,3.0,6.0,42,0.00,,,0.00,Wunderground v.1.15,2013-03-29 18:40:00,
2013-03-29 14:48:00,50.2,28.0,30.04,NE,35,4.0,10.0,43,0.00,,,0.00,weatherlink.com 1.10,2013-03-29 18:48:00,
2013-03-29 15:00:00,50.1,28.4,30.04,NNW,344,4.0,6.0,43,0.00,,,0.00,Wunderground v.1.15,2013-03-29 19:00:00,
2013-03-29 15:10:00,50.1,28.4,30.04,NNW,339,5.0,5.0,43,0.00,,,0.00,Wunderground v.1.15,2013-03-29 19:10:00,
2013-03-29 15:19:00,50.6,29.0,30.04,NNW,327,0.0,9.0,43,0.00,,,0.00,weatherlink.com 1.10,2013-03-29 19:19:00,
2013-03-29 15:30:00,50.2,28.5,30.04,North,355,5.0,5.0,43,0.00,,,0.00,Wunderground v.1.15,2013-03-29 19:30:00,
2013-03-29 15:40:00,50.1,27.9,30.04,NNW,328,5.0,9.0,42,0.00,,,0.00,Wunderground v.1.15,2013-03-29 19:40:00,
2013-03-29 15:49:00,49.9,28.0,30.04,NNW,346,1.0,11.0,43,0.00,,,0.00,weatherlink.com 1.10,2013-03-29 19:49:00,
2013-03-29 16:00:00,50.2,28.5,30.03,West,280,5.0,6.0,43,0.00,,,0.00,Wunderground v.1.15,2013-03-29 20:00:00,
2013-03-29 16:10:00,50.0,28.9,30.04,NNE,13,6.0,6.0,44,0.00,,,0.00,Wunderground v.1.15,2013-03-29 20:10:00,
2013-03-29 16:19:00,49.8,29.0,30.04,NNW,344,3.0,11.0,45,0.00,,,0.00,weatherlink.com 1.10,2013-03-29 20:19:00,
2013-03-29 16:30:00,49.1,29.7,30.04,NW,321,5.0,6.0,47,0.00,,,0.00,Wunderground v.1.15,2013-03-29 20:30:00,
2013-03-29 16:40:00,48.7,30.4,30.04,West,269,4.0,4.0,49,0.00,,,0.00,Wunderground v.1.15,2013-03-29 20:40:00,
2013-03-29 16:48:00,48.6,30.0,30.05,North,360,3.0,12.0,49,0.00,,,0.00,weatherlink.com 1.10,2013-03-29 20:48:00,
2013-03-29 17:00:00,48.9,30.6,30.05,NNW,342,3.0,3.0,49,0.00,,,0.00,Wunderground v.1.15,2013-03-29 21:00:00,
2013-03-29 17:10:00,48.5,30.2,30.05,NW,314,5.0,5.0,49,0.00,,,0.00,Wunderground v.1.15,2013-03-29 21:10:00,
2013-03-29 17:19:00,48.2,30.0,30.05,WNW,302,8.0,11.0,49,0.00,,,0.00,weatherlink.com 1.10,2013-03-29 21:19:00,
2013-03-29 17:30:00,48.3,31.0,30.05,NNE,13,3.0,4.0,51,0.00,,,0.00,Wunderground v.1.15,2013-03-29 21:30:00,
2013-03-29 17:40:00,48.2,30.4,30.05,NNW,333,4.0,9.0,50,0.00,,,0.00,Wunderground v.1.15,2013-03-29 21:40:00,
2013-03-29 17:49:00,47.8,30.0,30.05,WSW,243,2.0,11.0,51,0.00,,,0.00,weatherlink.com 1.10,2013-03-29 21:49:00,
2013-03-29 18:00:00,47.7,30.4,30.06,NW,320,3.0,3.0,51,0.00,,,0.00,Wunderground v.1.15,2013-03-29 22:00:00,
2013-03-29 18:10:00,47.6,29.9,30.06,NNW,338,4.0,4.0,50,0.00,,,0.00,Wunderground v.1.15,2013-03-29 22:10:00,
2013-03-29 18:20:00,47.4,29.7,30.06,WNW,286,4.0,4.0,50,0.00,,,0.00,Wunderground v.1.15,2013-03-29 22:20:00,
2013-03-29 18:30:00,47.2,29.5,30.06,WNW,297,5.0,5.0,50,0.00,,,0.00,Wunderground v.1.15,2013-03-29 22:30:00,
2013-03-29 18:40:00,47.0,29.3,30.07,NE,36,4.0,4.0,50,0.00,,,0.00,Wunderground v.1.15,2013-03-29 22:40:00,
2013-03-29 18:49:00,47.0,29.0,30.06,North,360,3.0,6.0,49,0.00,,,0.00,weatherlink.com 1.10,2013-03-29 22:49:00,
2013-03-29 19:00:00,46.9,28.7,30.06,NNW,327,3.0,3.0,49,0.00,,,0.00,Wunderground v.1.15,2013-03-29 23:00:00,
2013-03-29 19:10:00,46.7,29.0,30.07,North,355,4.0,5.0,50,0.00,,,0.00,Wunderground v.1.15,2013-03-29 23:10:00,
2013-03-29 19:19:00,46.6,29.0,30.07,NNW,342,0.0,8.0,51,0.00,,,0.00,weatherlink.com 1.10,2013-03-29 23:19:00,
2013-03-29 19:30:00,46.3,29.1,30.07,NNW,333,1.0,1.0,51,0.00,,,0.00,Wunderground v.1.15,2013-03-29 23:30:00,
2013-03-29 19:40:00,45.9,29.2,30.07,WNW,300,1.0,3.0,52,0.00,,,0.00,Wunderground v.1.15,2013-03-29 23:40:00,
2013-03-29 19:50:00,45.6,29.4,30.08,NW,316,2.0,3.0,53,0.00,,,0.00,Wunderground v.1.15,2013-03-29 23:50:00,
2013-03-29 20:00:00,45.3,29.6,30.08,North,355,1.0,2.0,54,0.00,,,0.00,Wunderground v.1.15,2013-03-30 00:00:00,
2013-03-29 20:10:00,45.1,29.4,30.08,WNW,296,1.0,1.0,54,0.00,,,0.00,Wunderground v.1.15,2013-03-30 00:10:00,
2013-03-29 20:20:00,44.8,29.6,30.08,NW,321,1.0,1.0,55,0.00,,,0.00,Wunderground v.1.15,2013-03-30 00:20:00,
2013-03-29 20:30:00,44.4,29.7,30.09,NW,318,1.0,2.0,56,0.00,,,0.00,Wunderground v.1.15,2013-03-30 00:30:00,
2013-03-29 20:36:00,44.3,29.0,30.09,WNW,285,0.0,5.0,56,0.00,,,0.00,weatherlink.com 1.10,2013-03-30 00:36:00,
2013-03-29 20:50:00,44.2,29.9,30.09,NW,309,1.0,2.0,57,0.00,,,0.00,Wunderground v.1.15,2013-03-30 00:50:00,
2013-03-29 21:00:00,44.1,29.8,30.09,North,5,1.0,1.0,57,0.00,,,0.00,Wunderground v.1.15,2013-03-30 01:00:00,
2013-03-29 21:05:00,44.1,30.0,30.09,North,351,5.0,6.0,58,0.00,,,0.00,weatherlink.com 1.10,2013-03-30 01:05:00,
2013-03-29 21:20:00,44.2,29.9,30.10,NNW,335,2.0,5.0,57,0.00,,,0.00,Wunderground v.1.15,2013-03-30 01:20:00,
2013-03-29 21:30:00,44.2,29.9,30.10,NNW,341,3.0,3.0,57,0.00,,,0.00,Wunderground v.1.15,2013-03-30 01:30:00,
2013-03-29 21:35:00,44.1,30.0,30.10,NW,325,2.0,5.0,58,0.00,,,0.00,weatherlink.com 1.10,2013-03-30 01:35:00,
2013-03-29 21:50:00,43.8,30.0,30.10,NNW,327,2.0,2.0,58,0.00,,,0.00,Wunderground v.1.15,2013-03-30 01:50:00,
2013-03-29 22:00:00,43.6,30.2,30.10,North,350,2.0,3.0,59,0.00,,,0.00,Wunderground v.1.15,2013-03-30 02:00:00,
2013-03-29 22:06:00,43.5,30.0,30.10,WNW,300,0.0,6.0,60,0.00,,,0.00,weatherlink.com 1.10,2013-03-30 02:06:00,
2013-03-29 22:20:00,43.1,30.6,30.10,NW,320,1.0,2.0,61,0.00,,,0.00,Wunderground v.1.15,2013-03-30 02:20:00,
2013-03-29 22:30:00,42.9,30.8,30.11,NNW,346,0.0,0.0,62,0.00,,,0.00,Wunderground v.1.15,2013-03-30 02:30:00,
2013-03-29 22:37:00,42.7,30.0,30.11,NNW,334,0.0,4.0,62,0.00,,,0.00,weatherlink.com 1.10,2013-03-30 02:37:00,
2013-03-29 22:50:00,42.3,30.6,30.11,NNW,336,0.0,2.0,63,0.00,,,0.00,Wunderground v.1.15,2013-03-30 02:50:00,
2013-03-29 23:00:00,42.1,30.8,30.11,NNW,333,0.0,0.0,64,0.00,,,0.00,Wunderground v.1.15,2013-03-30 03:00:00,
2013-03-29 23:07:00,41.9,30.0,30.11,NNW,333,0.0,1.0,64,0.00,,,0.00,weatherlink.com 1.10,2013-03-30 03:07:00,
2013-03-29 23:20:00,41.5,30.6,30.11,NNW,332,0.0,0.0,65,0.00,,,0.00,Wunderground v.1.15,2013-03-30 03:20:00,
2013-03-29 23:30:00,41.3,30.8,30.11,NNW,331,0.0,0.0,66,0.00,,,0.00,Wunderground v.1.15,2013-03-30 03:30:00,
2013-03-29 23:40:00,41.0,30.9,30.11,NW,322,0.0,0.0,67,0.00,,,0.00,Wunderground v.1.15,2013-03-30 03:40:00,
2013-03-29 23:50:00,41.1,31.3,30.11,NW,322,0.0,0.0,68,0.00,,,0.00,Wunderground v.1.15,2013-03-30 03:50:00,